Tracking 20945 objects as of 8-Jul-2020
HD Live streaming from Space Station
objects crossing your sky now

FENGYUN 1C DEB

Track FENGYUN 1C DEB now!
10-day predictions


NORAD ID: 35117
Int'l Code: 1999-025DKV
Perigee: 740.8 km
Apogee: 816.7 km
Inclination: 98.8 °
Period: 100.3 minutes
Semi major axis: 7149 km
RCS: 0.0112 m2 (small)
Launch date: May 10, 1999
Source: People's Republic of China (PRC)
Launch site: Taiyaun Space Center, China (TSC)

Note: This is SATELLITE DEBRIS
aabbcc
Your satellite tracking list
Your tracking list is empty




NASA's NSSDC Master Catalog

Two Line Element Set (TLE):
1 35117U 99025DKV 20190.05184206 +.00000682 +00000-0 +24613-3 0  9995
2 35117 098.7559 275.8311 0053112 039.9811 082.8204 14.36043122369448
Source of the keplerian elements: AFSPC